| time (UTC) | temp F | wind direction | speed knots | gust knots | rain 1hr in | rain 24hr in | rain mn in | humidity % | barometer mb |
| 20260504081945 | 48 | 286 | 1.7 | 1.7 | 0.00 | 0.00 | 0.00 | 77 | 1006.7 |
| 20260504081442 | 48 | 295 | 1.7 | 1.7 | 0.00 | 0.00 | 0.00 | 77 | 1006.9 |
| 20260504080937 | 48 | 295 | 1.7 | 1.7 | 0.00 | 0.00 | 0.00 | 77 | 1007.2 |
| 20260504080434 | 48 | 243 | 3.5 | 4.3 | 0.00 | 0.00 | 0.00 | 77 | 1007.0 |
| 20260504070402 | 48 | 240 | 4.3 | 5.2 | 0.00 | 0.00 | 0.00 | 75 | 1006.9 |
| 20260504050749 | 49 | 223 | 7.0 | 8.7 | 0.00 | 0.00 | 0.00 | 61 | 1007.5 |
| 20260504050247 | 49 | 278 | 2.6 | 5.2 | 0.00 | 0.00 | 0.00 | 60 | 1007.4 |
| 20260504045744 | 49 | 249 | 6.1 | 7.0 | 0.00 | 0.00 | 0.00 | 59 | 1007.7 |
| 20260504045239 | 49 | 290 | 4.3 | 5.2 | 0.00 | 0.00 | 0.00 | 59 | 1007.5 |
| 20260504044737 | 49 | 292 | 3.5 | 4.3 | 0.00 | 0.00 | 0.00 | 59 | 1007.6 |
| 20260504044234 | 49 | 273 | 5.2 | 6.1 | 0.00 | 0.00 | 0.00 | 59 | 1007.7 |
| 20260504043731 | 49 | 279 | 3.5 | 4.3 | 0.00 | 0.00 | 0.00 | 59 | 1007.6 |
| 20260504043228 | 49 | 213 | 6.1 | 7.8 | 0.00 | 0.00 | 0.00 | 58 | 1007.6 |
| 20260504042726 | 49 | 261 | 3.5 | 4.3 | 0.00 | 0.00 | 0.00 | 57 | 1007.5 |
| 20260504042222 | 48 | 309 | 2.6 | 2.6 | 0.00 | 0.00 | 0.00 | 56 | 1007.7 |
| 20260504041718 | 48 | 276 | 1.7 | 1.7 | 0.00 | 0.00 | 0.00 | 55 | 1007.7 |
| 20260504041214 | 48 | 290 | 4.3 | 5.2 | 0.00 | 0.00 | 0.00 | 53 | 1007.7 |
| 20260504040710 | 48 | 266 | 4.3 | 6.1 | 0.00 | 0.00 | 0.00 | 52 | 1007.6 |
| 20260504040208 | 47 | 266 | 4.3 | 6.1 | 0.00 | 0.00 | 0.00 | 52 | 1007.6 |
| 20260504035704 | 47 | 252 | 3.5 | 6.1 | 0.00 | 0.00 | 0.00 | 52 | 1007.5 |
| 20260504035202 | 47 | 245 | 3.5 | 5.2 | 0.00 | 0.00 | 0.00 | 52 | 1007.6 |
| 20260504034659 | 47 | 274 | 2.6 | 2.6 | 0.00 | 0.00 | 0.00 | 52 | 1007.5 |
| 20260504034155 | 46 | 286 | 3.5 | 5.2 | 0.00 | 0.00 | 0.00 | 52 | 1007.8 |
| 20260504033653 | 46 | 246 | 2.6 | 2.6 | 0.00 | 0.00 | 0.00 | 53 | 1008.0 |
| 20260504033150 | 45 | 308 | 2.6 | 2.6 | 0.00 | 0.00 | 0.00 | 53 | 1007.7 |
| 20260504032647 | 45 | 299 | 2.6 | 2.6 | 0.00 | 0.00 | 0.00 | 53 | 1007.7 |
| 20260504032144 | 45 | 310 | 1.7 | 1.7 | 0.00 | 0.00 | 0.00 | 53 | 1007.9 |
| 20260504031641 | 45 | 275 | 2.6 | 4.3 | 0.00 | 0.00 | 0.00 | 53 | 1007.9 |
| 20260504031138 | 45 | 312 | 0.9 | 1.7 | 0.00 | 0.00 | 0.00 | 53 | 1007.9 |
| 20260504030634 | 45 | 285 | 1.7 | 2.6 | 0.00 | 0.00 | 0.00 | 53 | 1007.9 |
| 20260504030131 | 45 | 309 | 1.7 | 1.7 | 0.00 | 0.00 | 0.00 | 53 | 1007.9 |
| 20260504025628 | 44 | 303 | 2.6 | 2.6 | 0.00 | 0.00 | 0.00 | 53 | 1007.7 |
| 20260504025125 | 44 | 295 | 1.7 | 1.7 | 0.00 | 0.00 | 0.00 | 53 | 1007.7 |
| 20260504024622 | 44 | 253 | 2.6 | 2.6 | 0.00 | 0.00 | 0.00 | 53 | 1007.7 |
| 20260504024118 | 44 | 253 | 2.6 | 2.6 | 0.00 | 0.00 | 0.00 | 53 | 1007.8 |
| 20260504023615 | 44 | 290 | 2.6 | 2.6 | 0.00 | 0.00 | 0.00 | 53 | 1007.9 |
| 20260504023111 | 44 | 286 | 1.7 | 1.7 | 0.00 | 0.00 | 0.00 | 52 | 1008.2 |
| 20260504022608 | 44 | 302 | 1.7 | 1.7 | 0.00 | 0.00 | 0.00 | 53 | 1008.2 |
| 20260504022103 | 44 | 316 | 0.9 | 0.9 | 0.00 | 0.00 | 0.00 | 53 | 1008.1 |
| 20260504021602 | 45 | 322 | 0.9 | 0.9 | 0.00 | 0.00 | 0.00 | 53 | 1008.2 |
| 20260504021058 | 45 | 315 | 1.7 | 1.7 | 0.00 | 0.00 | 0.00 | 52 | 1008.1 |
| 20260504020555 | 45 | 315 | 0.9 | 1.7 | 0.00 | 0.00 | 0.00 | 52 | 1008.4 |
| 20260504020051 | 45 | 311 | 0.9 | 1.7 | 0.00 | 0.00 | 0.00 | 51 | 1008.3 |
| 20260504015548 | 45 | 310 | 1.7 | 1.7 | 0.00 | 0.00 | 0.00 | 52 | 1008.4 |
| 20260504015044 | 45 | 315 | 0.9 | 1.7 | 0.00 | 0.00 | 0.00 | 52 | 1008.1 |
| 20260504014540 | 45 | 324 | 0.9 | 0.9 | 0.00 | 0.00 | 0.00 | 53 | 1008.3 |
| 20260504014038 | 45 | 321 | 0.9 | 0.9 | 0.00 | 0.00 | 0.00 | 51 | 1008.2 |
| 20260504013535 | 46 | 320 | 0.9 | 0.9 | 0.00 | 0.00 | 0.00 | 52 | 1008.4 |
| 20260504013032 | 46 | 314 | 0.9 | 1.7 | 0.00 | 0.00 | 0.00 | 51 | 1008.4 |
| 20260504012530 | 46 | 317 | 0.9 | 0.9 | 0.00 | 0.00 | 0.00 | 50 | 1008.3 |
| 20260504012027 | 47 | 277 | 1.7 | 2.6 | 0.00 | 0.00 | 0.00 | 50 | 1008.4 |
| 20260504011524 | 47 | 310 | 0.9 | 1.7 | 0.00 | 0.00 | 0.00 | 49 | 1008.5 |
| 20260504011020 | 47 | 302 | 1.7 | 1.7 | 0.00 | 0.00 | 0.00 | 49 | 1008.3 |
| 20260504010515 | 47 | 254 | 3.5 | 5.2 | 0.00 | 0.00 | 0.00 | 50 | 1008.3 |
| 20260504010012 | 46 | 305 | 1.7 | 1.7 | 0.00 | 0.00 | 0.00 | 52 | 1008.3 |
| 20260504005509 | 46 | 303 | 1.7 | 1.7 | 0.00 | 0.00 | 0.00 | 52 | 1008.2 |
| 20260504005006 | 45 | 312 | 0.9 | 1.7 | 0.00 | 0.00 | 0.00 | 56 | 1008.3 |
| 20260504004504 | 45 | 332 | 0.9 | 0.9 | 0.00 | 0.00 | 0.00 | 60 | 1008.2 |
| 20260504004000 | 45 | 333 | 0.0 | 0.0 | 0.00 | 0.00 | 0.00 | 59 | 1008.1 |
| 20260504003456 | 45 | 333 | 0.0 | 0.9 | 0.00 | 0.00 | 0.00 | 59 | 1008.2 |
| 20260504002954 | 46 | 333 | 0.0 | 0.0 | 0.00 | 0.00 | 0.00 | 57 | 1008.0 |
| 20260504002450 | 47 | 333 | 0.9 | 0.9 | 0.00 | 0.00 | 0.00 | 55 | 1008.0 |
| 20260504001948 | 47 | 333 | 0.9 | 0.9 | 0.00 | 0.00 | 0.00 | 54 | 1008.1 |
| 20260504001445 | 47 | 333 | 0.0 | 0.9 | 0.00 | 0.00 | 0.00 | 54 | 1008.1 |
| 20260504000942 | 48 | 333 | 0.0 | 0.0 | 0.00 | 0.00 | 0.00 | 52 | 1007.9 |
| 20260504000439 | 49 | 332 | 0.0 | 0.0 | 0.00 | 0.00 | 0.00 | 48 | 1007.9 |
| 20260503235936 | 50 | 323 | 0.9 | 0.9 | 0.00 | 0.00 | 0.00 | 48 | 1008.1 |
| 20260503235434 | 50 | 329 | 0.0 | 0.9 | 0.00 | 0.00 | 0.00 | 47 | 1008.0 |
| 20260503234931 | 51 | 314 | 0.9 | 0.9 | 0.00 | 0.00 | 0.00 | 44 | 1007.7 |
| 20260503234429 | 51 | 312 | 0.9 | 1.7 | 0.00 | 0.00 | 0.00 | 44 | 1007.8 |
| 20260503233926 | 51 | 317 | 0.9 | 1.7 | 0.00 | 0.00 | 0.00 | 43 | 1007.8 |
| 20260503233423 | 53 | 320 | 0.9 | 1.7 | 0.00 | 0.00 | 0.00 | 41 | 1007.9 |
| 20260503232919 | 53 | 328 | 0.9 | 0.9 | 0.00 | 0.00 | 0.00 | 40 | 1007.9 |
| 20260503232416 | 53 | 335 | 0.9 | 0.9 | 0.00 | 0.00 | 0.00 | 40 | 1007.7 |
| 20260503231914 | 53 | 332 | 0.9 | 0.9 | 0.00 | 0.00 | 0.00 | 39 | 1007.8 |
| 20260503231411 | 53 | 284 | 1.7 | 1.7 | 0.00 | 0.00 | 0.00 | 39 | 1007.7 |
| 20260503230907 | 53 | 318 | 1.7 | 1.7 | 0.00 | 0.00 | 0.00 | 39 | 1007.9 |
| 20260503230404 | 53 | 305 | 2.6 | 2.6 | 0.00 | 0.00 | 0.00 | 38 | 1007.8 |
| 20260503225902 | 53 | 260 | 4.3 | 5.2 | 0.00 | 0.00 | 0.00 | 38 | 1007.8 |
| 20260503225357 | 54 | 293 | 5.2 | 7.0 | 0.00 | 0.00 | 0.00 | 38 | 1007.8 |
| 20260503224854 | 54 | 313 | 2.6 | 2.6 | 0.00 | 0.00 | 0.00 | 37 | 1007.6 |
| 20260503224351 | 54 | 308 | 2.6 | 4.3 | 0.00 | 0.00 | 0.00 | 38 | 1007.8 |
| 20260503223849 | 55 | 301 | 2.6 | 4.3 | 0.00 | 0.00 | 0.00 | 37 | 1007.8 |
| 20260503223347 | 55 | 310 | 1.7 | 2.6 | 0.00 | 0.00 | 0.00 | 37 | 1007.9 |
| 20260503222842 | 54 | 319 | 2.6 | 4.3 | 0.00 | 0.00 | 0.00 | 37 | 1007.5 |
| 20260503222341 | 54 | 278 | 4.3 | 5.2 | 0.00 | 0.00 | 0.00 | 37 | 1007.6 |
| 20260503221838 | 54 | 318 | 2.6 | 2.6 | 0.00 | 0.00 | 0.00 | 38 | 1008.0 |
| 20260503221337 | 54 | 320 | 3.5 | 4.3 | 0.00 | 0.00 | 0.00 | 37 | 1007.8 |
| 20260503220832 | 53 | 316 | 2.6 | 2.6 | 0.00 | 0.00 | 0.00 | 38 | 1007.7 |
| 20260503220329 | 53 | 314 | 1.7 | 2.6 | 0.00 | 0.00 | 0.00 | 37 | 1007.9 |
| 20260503215826 | 54 | 347 | 2.6 | 2.6 | 0.00 | 0.00 | 0.00 | 38 | 1007.9 |
| 20260503215323 | 54 | 336 | 0.9 | 1.7 | 0.00 | 0.00 | 0.00 | 38 | 1007.8 |
| 20260503214821 | 55 | 268 | 2.6 | 4.3 | 0.00 | 0.00 | 0.00 | 38 | 1007.8 |
| 20260503214318 | 54 | 340 | 0.9 | 0.9 | 0.00 | 0.00 | 0.00 | 40 | 1007.9 |
| 20260503213815 | 54 | 339 | 0.9 | 1.7 | 0.00 | 0.00 | 0.00 | 40 | 1007.8 |
| 20260503213313 | 53 | 311 | 2.6 | 2.6 | 0.00 | 0.00 | 0.00 | 39 | 1008.0 |
| 20260503212810 | 53 | 327 | 3.5 | 5.2 | 0.00 | 0.00 | 0.00 | 39 | 1007.8 |
| 20260503212308 | 54 | 342 | 2.6 | 4.3 | 0.00 | 0.00 | 0.00 | 38 | 1007.8 |
| 20260503211805 | 53 | 335 | 2.6 | 2.6 | 0.00 | 0.00 | 0.00 | 37 | 1007.8 |
| 20260503211302 | 53 | 297 | 2.6 | 2.6 | 0.00 | 0.00 | 0.00 | 37 | 1007.8 |
| 20260503210801 | 54 | 318 | 3.5 | 4.3 | 0.00 | 0.00 | 0.00 | 37 | 1007.7 |
| 20260503210259 | 54 | 324 | 1.7 | 1.7 | 0.00 | 0.00 | 0.00 | 38 | 1007.7 |
| 20260503205754 | 54 | 299 | 5.2 | 7.8 | 0.00 | 0.00 | 0.00 | 36 | 1007.6 |
| 20260503205251 | 54 | 314 | 1.7 | 2.6 | 0.00 | 0.00 | 0.00 | 39 | 1008.0 |
| 20260503204747 | 54 | 305 | 4.3 | 6.1 | 0.00 | 0.00 | 0.00 | 38 | 1007.9 |
| 20260503204245 | 54 | 312 | 2.6 | 4.3 | 0.00 | 0.00 | 0.00 | 37 | 1008.1 |
| 20260503203742 | 54 | 308 | 3.5 | 4.3 | 0.00 | 0.00 | 0.00 | 37 | 1007.8 |
| 20260503203240 | 54 | 333 | 1.7 | 2.6 | 0.00 | 0.00 | 0.00 | 37 | 1007.8 |
| 20260503202737 | 54 | 327 | 4.3 | 5.2 | 0.00 | 0.00 | 0.00 | 37 | 1007.8 |
| 20260503202234 | 55 | 339 | 0.9 | 0.9 | 0.00 | 0.00 | 0.00 | 37 | 1007.8 |
| 20260503201732 | 53 | 301 | 2.6 | 6.1 | 0.00 | 0.00 | 0.00 | 38 | 1007.8 |
| 20260503201229 | 54 | 297 | 3.5 | 5.2 | 0.00 | 0.00 | 0.00 | 37 | 1008.0 |
| 20260503200726 | 56 | 330 | 2.6 | 4.3 | 0.00 | 0.00 | 0.00 | 37 | 1008.0 |
| 20260503200222 | 55 | 323 | 0.9 | 1.7 | 0.00 | 0.00 | 0.00 | 37 | 1007.8 |
| 20260503195719 | 55 | 287 | 6.1 | 7.0 | 0.00 | 0.00 | 0.00 | 36 | 1008.0 |
| 20260503195216 | 53 | 18 | 3.5 | 5.2 | 0.00 | 0.00 | 0.00 | 39 | 1008.2 |
| 20260503194713 | 52 | 330 | 2.6 | 2.6 | 0.00 | 0.00 | 0.00 | 39 | 1008.3 |
| 20260503194209 | 52 | 317 | 3.5 | 4.3 | 0.00 | 0.00 | 0.00 | 39 | 1008.2 |
| 20260503193705 | 53 | 308 | 2.6 | 5.2 | 0.00 | 0.00 | 0.00 | 40 | 1008.5 |
| 20260503193201 | 53 | 317 | 2.6 | 5.2 | 0.00 | 0.00 | 0.00 | 39 | 1008.3 |
| 20260503192657 | 52 | 321 | 2.6 | 2.6 | 0.00 | 0.00 | 0.00 | 41 | 1008.6 |
| 20260503192152 | 53 | 328 | 3.5 | 4.3 | 0.00 | 0.00 | 0.00 | 40 | 1008.5 |
| 20260503191649 | 53 | 332 | 1.7 | 2.6 | 0.00 | 0.00 | 0.00 | 41 | 1008.5 |
| 20260503191147 | 54 | 309 | 2.6 | 2.6 | 0.00 | 0.00 | 0.00 | 40 | 1008.3 |
| 20260503190643 | 53 | 10 | 2.6 | 4.3 | 0.00 | 0.00 | 0.00 | 39 | 1008.4 |
| 20260503190140 | 52 | 316 | 1.7 | 2.6 | 0.00 | 0.00 | 0.00 | 42 | 1008.6 |
| 20260503185637 | 51 | 334 | 4.3 | 5.2 | 0.00 | 0.00 | 0.00 | 43 | 1008.8 |
| 20260503185132 | 51 | 310 | 5.2 | 7.0 | 0.00 | 0.00 | 0.00 | 43 | 1009.0 |
| 20260503184627 | 51 | 304 | 2.6 | 2.6 | 0.00 | 0.00 | 0.00 | 44 | 1008.7 |
| 20260503184124 | 51 | 284 | 5.2 | 6.1 | 0.00 | 0.00 | 0.00 | 43 | 1008.9 |
| 20260503183621 | 51 | 297 | 2.6 | 2.6 | 0.00 | 0.00 | 0.00 | 45 | 1009.0 |
| 20260503183118 | 51 | 295 | 4.3 | 5.2 | 0.00 | 0.00 | 0.00 | 44 | 1008.8 |
| 20260503182616 | 51 | 244 | 3.5 | 7.0 | 0.00 | 0.00 | 0.00 | 46 | 1009.2 |
| 20260503182114 | 50 | 288 | 3.5 | 4.3 | 0.00 | 0.00 | 0.00 | 48 | 1009.3 |
| 20260503181611 | 50 | 340 | 3.5 | 5.2 | 0.00 | 0.00 | 0.00 | 48 | 1009.1 |
| 20260503181108 | 50 | 296 | 1.7 | 4.3 | 0.00 | 0.00 | 0.00 | 47 | 1009.2 |
| 20260503180605 | 51 | 309 | 4.3 | 6.1 | 0.00 | 0.00 | 0.00 | 46 | 1009.0 |
| 20260503180103 | 51 | 308 | 2.6 | 2.6 | 0.00 | 0.00 | 0.00 | 46 | 1009.3 |
| 20260503175559 | 51 | 332 | 0.9 | 0.9 | 0.00 | 0.00 | 0.00 | 46 | 1009.2 |
| 20260503175056 | 51 | 2 | 2.6 | 5.2 | 0.00 | 0.00 | 0.00 | 46 | 1009.4 |
| 20260503174553 | 50 | 288 | 1.7 | 4.3 | 0.00 | 0.00 | 0.00 | 46 | 1009.3 |
| 20260503174050 | 51 | 284 | 2.6 | 4.3 | 0.00 | 0.00 | 0.00 | 46 | 1009.2 |
| 20260503173545 | 50 | 3 | 6.1 | 7.0 | 0.00 | 0.00 | 0.00 | 45 | 1009.3 |
| 20260503173041 | 51 | 328 | 2.6 | 4.3 | 0.00 | 0.00 | 0.00 | 44 | 1009.3 |
| 20260503172539 | 50 | 290 | 5.2 | 7.0 | 0.00 | 0.00 | 0.00 | 44 | 1009.5 |
| 20260503172036 | 50 | 287 | 4.3 | 5.2 | 0.00 | 0.00 | 0.00 | 45 | 1009.3 |
| 20260503171532 | 51 | 323 | 4.3 | 6.1 | 0.00 | 0.00 | 0.00 | 45 | 1009.3 |
| 20260503171030 | 51 | 345 | 0.9 | 1.7 | 0.00 | 0.00 | 0.00 | 46 | 1009.3 |
| 20260503170526 | 51 | 325 | 1.7 | 2.6 | 0.00 | 0.00 | 0.00 | 46 | 1009.4 |
| 20260503150918 | 49 | 340 | 0.9 | 0.9 | 0.00 | 0.00 | 0.00 | 50 | 1010.6 |
| 20260503150415 | 49 | 289 | 2.6 | 4.3 | 0.00 | 0.00 | 0.00 | 47 | 1010.7 |
| 20260503131308 | 47 | 58 | 1.7 | 5.2 | 0.00 | 0.00 | 0.00 | 62 | 1011.4 |
| 20260503130806 | 47 | 338 | 1.7 | 1.7 | 0.00 | 0.00 | 0.00 | 64 | 1011.3 |
| 20260503130303 | 47 | 347 | 2.6 | 2.6 | 0.00 | 0.00 | 0.00 | 65 | 1011.1 |
| 20260503110657 | 41 | 333 | 0.9 | 1.7 | 0.00 | 0.00 | 0.00 | 82 | 1011.1 |
| 20260503110154 | 41 | 319 | 1.7 | 2.6 | 0.00 | 0.00 | 0.00 | 82 | 1011.2 |
| 20260503100115 | 41 | 310 | 3.5 | 4.3 | 0.00 | 0.00 | 0.00 | 81 | 1010.6 |